Regional Weather Roundup
Issued by NWS State College, PA

Home | Current Version | Previous Version | Graphics & Text | Print | Product List | Glossary Off
Versions: 1 2 3 4 5 6 7 8 9 10 11 12 13 14 15 16 17 18 19 20 21 22 23 24 25 26 27 28 29 30 31 32 33 34 35 36 37 38 39 40 41 42 43 44 45 46 47 48 49 50

000
ASUS41 KCTP 281310
RWRCTP

REGIONAL WEATHER ROUNDUP
NATIONAL WEATHER SERVICE STATE COLLEGE PA
900 AM EDT MON JUL 28 2014

Note: "fair" indicates few or no clouds below 12,000 feet with no
significant weather and/or obstructions to visibility.

* = STATION THAT DOES NOT REPORT PRECIPITATION /E.G. RAIN...SNOW...ETC/
    THUNDER OR FOG.

PAZ002>004-007>009-013>016-020>023-029>032-281400-
WESTERN PENNSYLVANIA

CITY           SKY/WX    TMP DP  RH WIND       PRES   REMARKS
ERIE           CLOUDY    67  60  78 NW9       29.65R
MEADVILLE      CLOUDY    62  60  93 W9        29.68R
FRANKLIN*      CLOUDY    61  57  88 W12       29.70R
NEW CASTLE     LGT RAIN  63  61  93 W9        29.72R
BEAVER COUNTY  CLOUDY    63  59  88 W8        29.72R
BUTLER*        CLOUDY    63  57  82 W10G17    29.73R
PITTSBURGH INT CLOUDY    64  59  83 W16       29.73R
PITTSBURGH     PTSUNNY   65  58  78 W17G23    29.72R
INDIANA*       CLOUDY    64  59  82 W12G21    29.74R
LATROBE        PTSUNNY   64  63  94 W13G18    29.72S
WASHINGTON CO* CLOUDY    64  57  77 W9G17     29.76R
$$

PAZ004>006-010>012-017>019-024>028-033>037-041-042-045-046-049>053-281400-
CENTRAL PENNSYLVANIA

CITY           SKY/WX    TMP DP  RH WIND       PRES   REMARKS
BRADFORD       CLOUDY    61  57  87 W9        29.65S
DUBOIS         CLOUDY    63  59  87 W14       29.67R
CLEARFIELD     CLOUDY    63  59  87 W6        29.67R
JOHNSTOWN      CLOUDY    61  56  83 W15G25    29.71R
ALTOONA        CLOUDY    65  59  81 W13       29.69R
STATE COLLEGE  PTSUNNY   66  59  77 W7        29.65R
WILLIAMSPORT   PTSUNNY   70  62  76 W12       29.56R
SELINSGROVE    PTSUNNY   71  65  81 VRB3      29.60R
FT INDIANTOWN  CLOUDY    68  68 100 SW7       29.61R
CAPITAL CITY   CLOUDY    68  66  93 W5        29.61R
HARRISBURG     CLOUDY    71  66  84 NW7       29.61R
YORK           MOSUNNY   73  67  81 W9G17     29.62R
$$

PAZ038>040-043-044-047-048-054-055-060>062-067>071-281400-
EASTERN PENNSYLVANIA

CITY           SKY/WX    TMP DP  RH WIND       PRES   REMARKS
SCRANTON       CLOUDY    67  64  90 SW6       29.58R
MOUNT POCONO   CLOUDY    65  62  90 W13       29.60F
ALLENTOWN      CLOUDY    70  65  84 SW8       29.58S
QUAKERTOWN*    CLOUDY    70  66  88 W6        29.60S
READING        CLOUDY    72  66  81 W5        29.59R
LANCASTER      MOSUNNY   71  67  87 W9        29.61R
COATESVILLE    MOSUNNY   72  70  94 W9        29.62R
POTTSTOWN      CLOUDY    71  67  87 VRB6      29.61R
BLUE BELL      MOSUNNY   72  68  88 W7        29.58F
DOYLESTOWN     PTSUNNY   70  68  93 SW7       29.58S
WILLOW GROVE   NOT AVBL
NORTH PHILA    PTSUNNY   75  67  76 W9        29.60R
PHILADELPHIA   MOSUNNY   76  67  73 W14       29.59R
$$



USA.gov is the U.S. government's official web portal to all federal, state and local government web resources and services.